QPF
0.01 0.01 0.01 0.01 0.00 0.00 0.00 0.00 0.00 0.00 0.00 0.00 0.00 0.00 0.00 0.00 0.00 0.00 0.00 0.00 0.00 0.00 0.00 0.00 0.00 0.00 0.00 0.01 0.02 0.02 0.03 0.04 0.05 0.05 0.05 0.05 0.04 0.05 0.07 0.09 0.10 0.11 0.12 0.11
0.01 0.01 0.00 0.00 0.00 0.01 0.01 0.01 0.00 0.00 0.00 0.01 0.01 0.00 0.00 0.00 0.00 0.00 0.00 0.00 0.00 0.00 0.00 0.00 0.00 0.00 0.00 0.00 0.01 0.03 0.02 0.03 0.03 0.03 0.03 0.04 0.04 0.03 0.03 0.06 0.07 0.09 0.10 0.11
0.00 0.00 0.00 0.00 0.00 0.01 0.01 0.01 0.00 0.01 0.01 0.01 0.01 0.01 0.01 0.01 0.01 0.01 0.01 0.00 0.00 0.00 0.00 0.00 0.00 0.00 0.00 0.00 0.01 0.02 0.03 0.03 0.03 0.03 0.03 0.04 0.05 0.05 0.04 0.03 0.04 0.05 0.06 0.07
0.00 0.00 0.00 0.00 0.00 0.00 0.00 0.00 0.00 0.01 0.01 0.01 0.01 0.01 0.02 0.02 0.01 0.01 0.01 0.00 0.00 0.00 0.00 0.00 0.00 0.00 0.00 0.00 0.00 0.01 0.02 0.03 0.03 0.03 0.03 0.03 0.03 0.03 0.04 0.04 0.04 0.04 0.05 0.06
0.00 0.00 0.00 0.00 0.00 0.00 0.00 0.00 0.00 0.01 0.01 0.01 0.01 0.02 0.02 0.02 0.02 0.01 0.00 0.00 0.00 0.00 0.00 0.00 0.00 0.00 0.00 0.00 0.00 0.01 0.02 0.03 0.03 0.03 0.03 0.03 0.04 0.03 0.03 0.04 0.04 0.05 0.05 0.06
0.00 0.00 0.00 0.00 0.00 0.00 0.00 0.00 0.00 0.01 0.01 0.02 0.01 0.01 0.02 0.02 0.02 0.03 0.02 0.01 0.01 0.01 0.01 0.00 0.00 0.00 0.00 0.00 0.00 0.01 0.02 0.03 0.04 0.04 0.03 0.03 0.04 0.04 0.04 0.04 0.04 0.05 0.06 0.06
0.01 0.00 0.00 0.00 0.00 0.00 0.01 0.01 0.02 0.02 0.02 0.01 0.00 0.01 0.01 0.01 0.02 0.03 0.03 0.02 0.03 0.03 0.01 0.01 0.00 0.00 0.00 0.00 0.00 0.01 0.01 0.02 0.03 0.04 0.04 0.03 0.04 0.05 0.05 0.05 0.06 0.05 0.05 0.06
0.01 0.01 0.00 0.00 0.00 0.00 0.01 0.01 0.02 0.02 0.01 0.00 0.00 0.00 0.01 0.01 0.02 0.02 0.02 0.02 0.01 0.02 0.01 0.01 0.00 0.00 0.00 0.00 0.00 0.01 0.01 0.01 0.02 0.03 0.04 0.03 0.03 0.03 0.04 0.06 0.08 0.07 0.06 0.05
0.00 0.00 0.00 0.00 0.00 0.00 0.01 0.01 0.01 0.02 0.02 0.01 0.01 0.01 0.00 0.01 0.01 0.01 0.02 0.01 0.01 0.01 0.01 0.01 0.01 0.00 0.00 0.00 0.00 0.00 0.01 0.01 0.01 0.02 0.03 0.04 0.03 0.03 0.04 0.05 0.07 0.09 0.10 0.09
0.00 0.00 0.00 0.00 0.00 0.00 0.00 0.01 0.01 0.02 0.02 0.01 0.00 0.00 0.01 0.00 0.01 0.01 0.01 0.02 0.01 0.01 0.02 0.02 0.01 0.01 0.00 0.00 0.01 0.01 0.01 0.01 0.02 0.02 0.03 0.04 0.04 0.04 0.04 0.05 0.07 0.08 0.09 0.09
0.01 0.01 0.00 0.00 0.00 0.00 0.00 0.01 0.02 0.02 0.01 0.01 0.01 0.00 0.00 0.01 0.00 0.01 0.01 0.01 0.02 0.01 0.02 0.02 0.01 0.01 0.01 0.01 0.01 0.01 0.01 0.01 0.02 0.02 0.03 0.04 0.05 0.05 0.05 0.05 0.05 0.07 0.09 0.10
0.01 0.01 0.01 0.00 0.00 0.00 0.00 0.01 0.02 0.03 0.02 0.01 0.01 0.00 0.00 0.00 0.00 0.00 0.01 0.01 0.02 0.02 0.02 0.03 0.02 0.02 0.01 0.01 0.01 0.01 0.01 0.01 0.01 0.02 0.03 0.03 0.03 0.05 0.05 0.05 0.05 0.06 0.07 0.08
0.02 0.02 0.01 0.01 0.00 0.01 0.01 0.01 0.01 0.02 0.03 0.02 0.01 0.01 0.00 0.00 0.00 0.00 0.00 0.00 0.01 0.02 0.03 0.03 0.02 0.01 0.01 0.01 0.01 0.01 0.01 0.01 0.01 0.01 0.01 0.02 0.03 0.04 0.04 0.04 0.05 0.06 0.07 0.07
0.04 0.03 0.01 0.01 0.00 0.01 0.01 0.01 0.01 0.02 0.03 0.02 0.01 0.01 0.00 0.01 0.01 0.01 0.01 0.01 0.01 0.01 0.02 0.02 0.01 0.01 0.00 0.00 0.00 0.00 0.01 0.01 0.01 0.01 0.01 0.01 0.02 0.03 0.04 0.04 0.05 0.06 0.07 0.06
0.04 0.04 0.01 0.00 0.00 0.01 0.01 0.00 0.01 0.01 0.02 0.02 0.01 0.01 0.01 0.01 0.01 0.02 0.02 0.01 0.01 0.01 0.02 0.02 0.02 0.01 0.00 0.00 0.00 0.01 0.01 0.01 0.01 0.02 0.02 0.02 0.03 0.04 0.05 0.05 0.05 0.06 0.07 0.07
0.03 0.03 0.02 0.01 0.00 0.01 0.01 0.01 0.01 0.01 0.01 0.01 0.01 0.01 0.01 0.01 0.02 0.03 0.03 0.02 0.02 0.02 0.02 0.02 0.02 0.02 0.01 0.00 0.01 0.01 0.01 0.01 0.01 0.01 0.02 0.02 0.02 0.03 0.04 0.05 0.05 0.06 0.06 0.07
0.02 0.02 0.02 0.01 0.01 0.01 0.01 0.01 0.01 0.01 0.01 0.01 0.01 0.01 0.01 0.01 0.02 0.03 0.03 0.03 0.02 0.02 0.02 0.02 0.02 0.03 0.02 0.01 0.01 0.01 0.01 0.01 0.01 0.02 0.02 0.02 0.02 0.02 0.03 0.04 0.05 0.05 0.05 0.05
0.02 0.02 0.03 0.02 0.01 0.01 0.01 0.00 0.00 0.00 0.00 0.01 0.01 0.01 0.01 0.02 0.03 0.04 0.04 0.04 0.02 0.02 0.02 0.02 0.02 0.03 0.02 0.02 0.02 0.02 0.02 0.02 0.02 0.02 0.02 0.02 0.03 0.03 0.03 0.04 0.04 0.04 0.04 0.04
0.02 0.03 0.03 0.02 0.01 0.01 0.00 0.01 0.01 0.01 0.00 0.01 0.01 0.01 0.01 0.02 0.03 0.03 0.03 0.03 0.03 0.02 0.03 0.03 0.03 0.03 0.03 0.03 0.02 0.02 0.02 0.02 0.02 0.02 0.02 0.02 0.03 0.03 0.04 0.04 0.04 0.04 0.04 0.04
0.02 0.03 0.03 0.02 0.02 0.01 0.01 0.01 0.01 0.01 0.01 0.01 0.01 0.01 0.01 0.03 0.02 0.02 0.03 0.04 0.04 0.03 0.03 0.04 0.04 0.03 0.04 0.04 0.03 0.03 0.02 0.03 0.03 0.03 0.03 0.03 0.03 0.03 0.04 0.04 0.04 0.04 0.04 0.04
0.03 0.04 0.03 0.02 0.02 0.01 0.01 0.01 0.01 0.01 0.01 0.01 0.01 0.01 0.02 0.03 0.03 0.03 0.03 0.03 0.04 0.03 0.04 0.04 0.04 0.03 0.04 0.04 0.04 0.03 0.03 0.04 0.04 0.04 0.04 0.03 0.03 0.03 0.04 0.04 0.04 0.04 0.03 0.03
0.01 0.02 0.02 0.02 0.02 0.01 0.01 0.01 0.01 0.01 0.01 0.01 0.01 0.01 0.02 0.03 0.03 0.03 0.03 0.03 0.03 0.03 0.03 0.04 0.04 0.04 0.04 0.04 0.04 0.04 0.04 0.04 0.04 0.04 0.04 0.03 0.03 0.03 0.03 0.04 0.04 0.03 0.03 0.03
0.01 0.02 0.02 0.02 0.02 0.01 0.02 0.02 0.02 0.02 0.01 0.01 0.01 0.01 0.02 0.02 0.02 0.02 0.03 0.03 0.03 0.03 0.03 0.04 0.04 0.04 0.03 0.04 0.04 0.04 0.04 0.04 0.04 0.04 0.03 0.03 0.04 0.04 0.04 0.04 0.04 0.04 0.04 0.04
0.01 0.01 0.01 0.01 0.01 0.01 0.01 0.01 0.01 0.01 0.01 0.01 0.02 0.02 0.02 0.02 0.03 0.03 0.03 0.03 0.02 0.02 0.03 0.03 0.04 0.04 0.04 0.04 0.04 0.03 0.03 0.04 0.04 0.04 0.03 0.03 0.04 0.04 0.05 0.04 0.04 0.05 0.04 0.04
0.01 0.01 0.01 0.01 0.01 0.01 0.01 0.01 0.01 0.02 0.02 0.02 0.02 0.02 0.02 0.02 0.02 0.03 0.03 0.03 0.03 0.03 0.03 0.03 0.03 0.04 0.04 0.04 0.04 0.04 0.04 0.04 0.04 0.04 0.04 0.04 0.04 0.04 0.05 0.05 0.06 0.06 0.06 0.05
0.01 0.01 0.01 0.01 0.01 0.01 0.01 0.01 0.02 0.02 0.02 0.02 0.02 0.02 0.01 0.01 0.02 0.02 0.02 0.02 0.03 0.03 0.03 0.03 0.03 0.03 0.03 0.04 0.04 0.04 0.05 0.05 0.04 0.04 0.04 0.04 0.03 0.04 0.04 0.04 0.04 0.04 0.04 0.04
MSLP
1013.54 1013.81 1014.03 1014.19 1014.30 1014.36 1014.39 1014.40 1014.38 1014.34 1014.28 1014.19 1014.08 1013.97 1013.86 1013.77 1013.71 1013.69 1013.71 1013.77 1013.83 1013.89 1013.91 1013.87 1013.78 1013.61 1013.38 1013.10 1012.78 1012.41 1012.02 1011.60 1011.15 1010.69 1010.21 1009.74 1009.31 1008.93 1008.64 1008.47 1008.42 1008.49 1008.68 1008.95
1013.74 1013.89 1013.99 1014.06 1014.12 1014.20 1014.30 1014.42 1014.55 1014.66 1014.73 1014.73 1014.65 1014.50 1014.30 1014.08 1013.88 1013.72 1013.62 1013.59 1013.62 1013.67 1013.72 1013.73 1013.69 1013.57 1013.39 1013.15 1012.86 1012.54 1012.21 1011.85 1011.46 1011.05 1010.61 1010.14 1009.67 1009.23 1008.86 1008.58 1008.45 1008.46 1008.61 1008.89
1013.85 1013.88 1013.87 1013.87 1013.92 1014.04 1014.24 1014.51 1014.81 1015.08 1015.28 1015.35 1015.29 1015.09 1014.77 1014.40 1014.03 1013.71 1013.49 1013.37 1013.35 1013.39 1013.46 1013.52 1013.53 1013.47 1013.33 1013.14 1012.90 1012.63 1012.35 1012.06 1011.74 1011.38 1010.98 1010.53 1010.03 1009.53 1009.07 1008.69 1008.45 1008.37 1008.47 1008.74
1013.99 1013.90 1013.81 1013.76 1013.82 1014.01 1014.33 1014.75 1015.21 1015.62 1015.93 1016.05 1015.97 1015.68 1015.24 1014.70 1014.16 1013.68 1013.32 1013.11 1013.05 1013.09 1013.19 1013.30 1013.36 1013.35 1013.27 1013.12 1012.92 1012.70 1012.48 1012.24 1011.98 1011.68 1011.31 1010.87 1010.36 1009.81 1009.26 1008.78 1008.43 1008.26 1008.29 1008.52
1014.26 1014.07 1013.90 1013.83 1013.91 1014.17 1014.60 1015.15 1015.73 1016.26 1016.62 1016.75 1016.62 1016.23 1015.64 1014.93 1014.21 1013.58 1013.11 1012.83 1012.73 1012.79 1012.93 1013.10 1013.22 1013.28 1013.24 1013.13 1012.97 1012.79 1012.60 1012.40 1012.19 1011.93 1011.60 1011.17 1010.65 1010.05 1009.44 1008.87 1008.42 1008.15 1008.09 1008.27
1014.71 1014.43 1014.20 1014.11 1014.21 1014.52 1015.02 1015.66 1016.33 1016.90 1017.27 1017.37 1017.14 1016.63 1015.88 1015.01 1014.14 1013.39 1012.83 1012.51 1012.41 1012.50 1012.71 1012.95 1013.14 1013.26 1013.27 1013.20 1013.06 1012.90 1012.73 1012.55 1012.37 1012.14 1011.83 1011.41 1010.89 1010.26 1009.60 1008.96 1008.42 1008.05 1007.91 1008.02
1015.32 1014.96 1014.68 1014.56 1014.65 1014.99 1015.52 1016.19 1016.87 1017.43 1017.76 1017.78 1017.44 1016.79 1015.90 1014.90 1013.92 1013.08 1012.47 1012.14 1012.08 1012.23 1012.52 1012.84 1013.12 1013.30 1013.36 1013.32 1013.20 1013.04 1012.87 1012.70 1012.52 1012.30 1012.00 1011.60 1011.08 1010.45 1009.75 1009.06 1008.45 1008.00 1007.78 1007.81
1016.01 1015.57 1015.23 1015.07 1015.14 1015.46 1015.98 1016.62 1017.25 1017.75 1017.99 1017.89 1017.44 1016.66 1015.66 1014.56 1013.51 1012.63 1012.03 1011.73 1011.73 1011.97 1012.34 1012.76 1013.12 1013.37 1013.49 1013.47 1013.36 1013.20 1013.02 1012.83 1012.64 1012.42 1012.14 1011.75 1011.23 1010.60 1009.90 1009.17 1008.52 1008.01 1007.71 1007.67
1016.62 1016.11 1015.72 1015.51 1015.54 1015.81 1016.27 1016.84 1017.38 1017.77 1017.89 1017.68 1017.11 1016.24 1015.16 1014.01 1012.94 1012.08 1011.52 1011.29 1011.37 1011.70 1012.17 1012.68 1013.13 1013.44 1013.60 1013.62 1013.51 1013.34 1013.14 1012.94 1012.74 1012.52 1012.23 1011.85 1011.36 1010.75 1010.05 1009.32 1008.64 1008.08 1007.72 1007.60
1017.02 1016.46 1016.02 1015.77 1015.75 1015.95 1016.33 1016.80 1017.22 1017.49 1017.49 1017.16 1016.50 1015.57 1014.46 1013.32 1012.28 1011.48 1010.99 1010.85 1011.02 1011.44 1012.00 1012.58 1013.10 1013.47 1013.67 1013.71 1013.62 1013.45 1013.24 1013.02 1012.81 1012.58 1012.30 1011.94 1011.47 1010.89 1010.21 1009.49 1008.80 1008.21 1007.80 1007.61
1017.10 1016.51 1016.05 1015.77 1015.71 1015.85 1016.14 1016.50 1016.80 1016.94 1016.83 1016.42 1015.71 1014.76 1013.68 1012.58 1011.63 1010.91 1010.52 1010.46 1010.72 1011.21 1011.83 1012.47 1013.02 1013.43 1013.67 1013.73 1013.65 1013.49 1013.27 1013.06 1012.84 1012.61 1012.34 1012.01 1011.57 1011.03 1010.38 1009.69 1009.00 1008.40 1007.94 1007.69
1016.85 1016.27 1015.82 1015.54 1015.45 1015.54 1015.76 1016.01 1016.20 1016.24 1016.04 1015.57 1014.85 1013.93 1012.92 1011.92 1011.07 1010.47 1010.17 1010.20 1010.52 1011.04 1011.69 1012.34 1012.91 1013.34 1013.58 1013.66 1013.60 1013.45 1013.25 1013.04 1012.83 1012.61 1012.37 1012.06 1011.66 1011.15 1010.55 1009.89 1009.22 1008.61 1008.12 1007.80
1016.34 1015.81 1015.40 1015.14 1015.06 1015.12 1015.26 1015.43 1015.53 1015.47 1015.22 1014.73 1014.04 1013.19 1012.28 1011.41 1010.70 1010.21 1010.01 1010.10 1010.45 1010.98 1011.61 1012.24 1012.78 1013.19 1013.44 1013.53 1013.48 1013.35 1013.17 1012.98 1012.79 1012.59 1012.36 1012.08 1011.72 1011.26 1010.71 1010.09 1009.44 1008.83 1008.32 1007.95
1015.71 1015.25 1014.90 1014.70 1014.62 1014.65 1014.75 1014.84 1014.85 1014.74 1014.45 1013.97 1013.34 1012.59 1011.81 1011.09 1010.52 1010.15 1010.04 1010.17 1010.52 1011.02 1011.60 1012.17 1012.67 1013.04 1013.26 1013.35 1013.31 1013.20 1013.05 1012.88 1012.70 1012.53 1012.32 1012.07 1011.75 1011.33 1010.83 1010.25 1009.64 1009.04 1008.51 1008.11
1015.12 1014.73 1014.45 1014.29 1014.22 1014.23 1014.27 1014.29 1014.24 1014.07 1013.76 1013.32 1012.76 1012.13 1011.49 1010.93 1010.51 1010.26 1010.23 1010.39 1010.72 1011.17 1011.68 1012.17 1012.58 1012.89 1013.08 1013.15 1013.12 1013.02 1012.88 1012.73 1012.58 1012.42 1012.23 1012.01 1011.71 1011.34 1010.88 1010.36 1009.79 1009.22 1008.70 1008.28
1014.67 1014.35 1014.13 1013.99 1013.92 1013.88 1013.86 1013.80 1013.68 1013.46 1013.15 1012.74 1012.26 1011.76 1011.28 1010.88 1010.60 1010.48 1010.51 1010.70 1011.01 1011.40 1011.81 1012.20 1012.53 1012.77 1012.90 1012.94 1012.90 1012.80 1012.68 1012.54 1012.40 1012.24 1012.07 1011.86 1011.59 1011.26 1010.85 1010.38 1009.87 1009.35 1008.86 1008.44
1014.43 1014.14 1013.93 1013.79 1013.68 1013.59 1013.48 1013.34 1013.14 1012.88 1012.56 1012.19 1011.80 1011.43 1011.10 1010.86 1010.72 1010.71 1010.81 1011.02 1011.31 1011.63 1011.96 1012.25 1012.49 1012.64 1012.71 1012.71 1012.66 1012.55 1012.42 1012.29 1012.14 1011.98 1011.81 1011.61 1011.37 1011.07 1010.71 1010.31 1009.87 1009.41 1008.98 1008.60
1014.34 1014.05 1013.82 1013.63 1013.46 1013.29 1013.09 1012.85 1012.58 1012.28 1011.96 1011.63 1011.33 1011.08 1010.90 1010.80 1010.80 1010.89 1011.06 1011.29 1011.55 1011.82 1012.06 1012.27 1012.41 1012.49 1012.50 1012.45 1012.36 1012.24 1012.09 1011.94 1011.78 1011.62 1011.44 1011.24 1011.01 1010.75 1010.45 1010.12 1009.76 1009.39 1009.04 1008.72
1014.30 1013.97 1013.70 1013.44 1013.19 1012.93 1012.64 1012.32 1011.99 1011.66 1011.34 1011.07 1010.85 1010.71 1010.65 1010.68 1010.80 1010.97 1011.20 1011.45 1011.69 1011.91 1012.09 1012.21 1012.27 1012.27 1012.22 1012.13 1012.00 1011.84 1011.67 1011.50 1011.31 1011.13 1010.94 1010.74 1010.53 1010.30 1010.06 1009.81 1009.55 1009.28 1009.03 1008.80
1014.17 1013.80 1013.46 1013.14 1012.82 1012.48 1012.13 1011.76 1011.40 1011.06 1010.76 1010.54 1010.40 1010.35 1010.40 1010.53 1010.73 1010.98 1011.24 1011.49 1011.71 1011.88 1011.99 1012.04 1012.03 1011.96 1011.85 1011.71 1011.53 1011.35 1011.15 1010.94 1010.73 1010.52 1010.32 1010.12 1009.92 1009.74 1009.56 1009.38 1009.22 1009.06 1008.92 1008.79
1013.87 1013.46 1013.07 1012.71 1012.34 1011.97 1011.60 1011.22 1010.87 1010.55 1010.30 1010.14 1010.06 1010.09 1010.21 1010.41 1010.66 1010.93 1011.20 1011.43 1011.61 1011.73 1011.78 1011.76 1011.68 1011.55 1011.38 1011.19 1010.98 1010.75 1010.52 1010.29 1010.05 1009.82 1009.61 1009.41 1009.23 1009.08 1008.96 1008.86 1008.79 1008.73 1008.70 1008.67
1013.37 1012.94 1012.55 1012.18 1011.83 1011.49 1011.15 1010.82 1010.51 1010.25 1010.06 1009.95 1009.93 1010.01 1010.16 1010.38 1010.64 1010.89 1011.13 1011.31 1011.44 1011.49 1011.46 1011.38 1011.23 1011.05 1010.83 1010.59 1010.34 1010.08 1009.82 1009.56 1009.31 1009.07 1008.84 1008.65 1008.49 1008.37 1008.30 1008.27 1008.27 1008.31 1008.36 1008.43
1012.73 1012.33 1011.98 1011.68 1011.40 1011.14 1010.88 1010.64 1010.42 1010.24 1010.12 1010.06 1010.07 1010.16 1010.31 1010.50 1010.71 1010.91 1011.07 1011.18 1011.22 1011.19 1011.09 1010.93 1010.72 1010.48 1010.22 1009.94 1009.66 1009.38 1009.09 1008.82 1008.55 1008.30 1008.08 1007.89 1007.74 1007.66 1007.62 1007.64 1007.70 1007.80 1007.93 1008.06
1012.10 1011.77 1011.51 1011.32 1011.16 1011.02 1010.89 1010.77 1010.66 1010.56 1010.50 1010.47 1010.49 1010.56 1010.66 1010.78 1010.90 1010.99 1011.05 1011.06 1010.99 1010.87 1010.68 1010.45 1010.18 1009.89 1009.58 1009.28 1008.97 1008.67 1008.38 1008.09 1007.83 1007.58 1007.36 1007.18 1007.05 1006.97 1006.96 1007.00 1007.10 1007.23 1007.40 1007.58
1011.63 1011.41 1011.29 1011.23 1011.22 1011.23 1011.24 1011.23 1011.22 1011.19 1011.16 1011.14 1011.13 1011.13 1011.15 1011.16 1011.16 1011.13 1011.06 1010.95 1010.78 1010.55 1010.28 1009.98 1009.65 1009.31 1008.97 1008.64 1008.32 1008.01 1007.72 1007.43 1007.17 1006.93 1006.72 1006.55 1006.42 1006.36 1006.35 1006.40 1006.49 1006.64 1006.81 1007.01
1011.49 1011.41 1011.42 1011.51 1011.63 1011.77 1011.89 1011.98 1012.03 1012.03 1012.00 1011.95 1011.87 1011.78 1011.68 1011.57 1011.43 1011.27 1011.07 1010.83 1010.56 1010.24 1009.89 1009.53 1009.15 1008.77 1008.41 1008.06 1007.73 1007.42 1007.12 1006.85 1006.60 1006.37 1006.17 1006.01 1005.89 1005.82 1005.81 1005.84 1005.92 1006.04 1006.20 1006.38
Thickness
5537 5531 5530 5534 5535 5539 5535 5534 5535 5540 5544 5543 5543 5550 5558 5559 5557 5557 5558 5558 5562 5566 5569 5571 5574 5577 5580 5583 5585 5588 5591 5593 5594 5596 5597 5599 5601 5604 5606 5607 5609 5610 5610 5610
5520 5519 5526 5527 5528 5527 5526 5523 5524 5528 5532 5533 5531 5538 5546 5546 5548 5548 5548 5548 5551 5554 5557 5560 5562 5564 5567 5570 5573 5576 5579 5581 5584 5586 5587 5588 5590 5593 5595 5596 5598 5600 5601 5601
5515 5517 5521 5520 5518 5517 5516 5513 5514 5516 5517 5517 5518 5528 5537 5539 5538 5538 5538 5540 5542 5545 5545 5548 5550 5552 5554 5557 5560 5565 5567 5570 5572 5574 5576 5577 5578 5580 5582 5585 5587 5590 5592 5593
5503 5507 5510 5509 5508 5508 5506 5510 5509 5506 5500 5495 5500 5501 5522 5524 5526 5529 5528 5529 5531 5533 5536 5537 5539 5541 5543 5546 5549 5552 5556 5558 5560 5562 5564 5565 5567 5568 5571 5574 5576 5579 5581 5583
5496 5498 5500 5500 5501 5499 5496 5498 5495 5493 5485 5477 5480 5479 5505 5510 5517 5521 5521 5521 5522 5523 5524 5526 5528 5530 5533 5535 5538 5541 5544 5547 5549 5550 5552 5554 5555 5557 5559 5562 5564 5567 5570 5572
5489 5492 5492 5493 5493 5492 5487 5482 5476 5468 5464 5468 5472 5469 5491 5498 5509 5512 5512 5513 5513 5514 5515 5516 5517 5519 5522 5524 5526 5529 5532 5534 5536 5538 5540 5542 5544 5546 5547 5550 5552 5555 5558 5561
5479 5483 5483 5484 5482 5480 5476 5467 5458 5457 5447 5459 5465 5464 5483 5498 5499 5501 5502 5502 5502 5502 5503 5504 5506 5508 5511 5513 5515 5517 5518 5521 5523 5525 5527 5529 5532 5534 5536 5539 5541 5543 5547 5550
5464 5467 5473 5474 5474 5470 5466 5465 5455 5451 5444 5448 5453 5458 5481 5489 5488 5489 5490 5491 5491 5490 5491 5492 5494 5496 5498 5501 5503 5504 5506 5508 5510 5512 5514 5516 5519 5521 5524 5527 5530 5533 5536 5540
5455 5459 5465 5466 5467 5465 5458 5451 5451 5436 5427 5430 5443 5452 5469 5479 5480 5480 5480 5480 5480 5479 5480 5481 5482 5483 5485 5487 5490 5491 5493 5496 5497 5499 5501 5504 5506 5509 5511 5514 5518 5521 5525 5529
5449 5442 5451 5455 5458 5456 5453 5444 5431 5430 5431 5438 5444 5445 5461 5471 5472 5471 5469 5468 5468 5467 5468 5469 5470 5471 5472 5474 5476 5478 5480 5483 5485 5487 5489 5492 5494 5497 5499 5503 5506 5510 5514 5518
5441 5434 5437 5442 5443 5442 5440 5436 5430 5420 5419 5422 5428 5453 5465 5462 5464 5459 5458 5456 5454 5454 5455 5456 5457 5459 5460 5461 5463 5465 5468 5470 5472 5475 5477 5480 5483 5485 5488 5491 5494 5498 5502 5505
5429 5421 5421 5428 5434 5435 5436 5433 5423 5422 5413 5403 5404 5437 5458 5453 5452 5449 5446 5445 5443 5442 5442 5443 5445 5446 5448 5450 5451 5453 5456 5458 5460 5463 5466 5469 5471 5473 5476 5480 5483 5487 5490 5494
5422 5415 5416 5424 5423 5421 5422 5422 5417 5411 5404 5394 5401 5435 5446 5442 5441 5439 5436 5434 5432 5431 5431 5432 5433 5434 5437 5439 5441 5443 5444 5446 5449 5452 5454 5457 5459 5461 5464 5468 5471 5475 5479 5482
5420 5409 5413 5423 5424 5414 5413 5414 5409 5406 5402 5397 5406 5426 5435 5432 5429 5428 5426 5423 5421 5420 5421 5421 5422 5423 5426 5428 5430 5432 5434 5436 5439 5442 5444 5446 5447 5449 5451 5455 5459 5462 5466 5470
5409 5402 5398 5402 5408 5407 5407 5409 5405 5402 5405 5405 5415 5414 5429 5422 5418 5417 5415 5413 5412 5412 5412 5413 5413 5414 5416 5417 5419 5421 5424 5426 5429 5431 5434 5436 5437 5438 5440 5443 5447 5450 5454 5459
5393 5392 5390 5394 5400 5398 5401 5405 5405 5404 5403 5402 5405 5414 5419 5411 5409 5407 5405 5404 5404 5405 5404 5405 5405 5406 5407 5407 5409 5411 5414 5416 5418 5420 5423 5425 5426 5427 5429 5431 5435 5439 5442 5446
5383 5381 5384 5386 5386 5393 5397 5404 5403 5401 5400 5400 5404 5414 5408 5405 5404 5401 5400 5398 5397 5397 5396 5397 5397 5398 5399 5399 5400 5401 5403 5406 5408 5410 5412 5413 5415 5417 5418 5421 5424 5428 5432 5435
5376 5375 5371 5372 5377 5386 5411 5403 5401 5398 5398 5396 5400 5401 5399 5398 5396 5394 5392 5391 5390 5389 5389 5389 5389 5390 5391 5391 5392 5393 5394 5396 5398 5400 5401 5403 5404 5406 5409 5411 5414 5418 5422 5426
5373 5371 5366 5362 5365 5381 5400 5400 5392 5389 5393 5394 5393 5395 5391 5388 5387 5389 5388 5384 5382 5381 5381 5382 5382 5383 5384 5384 5384 5385 5386 5387 5389 5390 5391 5393 5394 5396 5399 5402 5406 5409 5412 5416
5364 5363 5360 5356 5367 5382 5403 5397 5389 5388 5389 5393 5388 5387 5382 5379 5381 5386 5382 5377 5376 5375 5376 5375 5375 5376 5377 5377 5378 5378 5379 5380 5381 5382 5383 5385 5386 5388 5391 5394 5397 5401 5404 5408
5358 5354 5352 5351 5356 5375 5389 5385 5384 5384 5393 5388 5382 5379 5374 5372 5373 5373 5371 5370 5369 5369 5369 5369 5368 5369 5370 5370 5371 5371 5372 5373 5374 5375 5376 5378 5380 5382 5384 5387 5390 5393 5397 5399
5359 5351 5345 5346 5352 5375 5382 5376 5378 5382 5380 5376 5374 5371 5367 5364 5364 5363 5363 5363 5363 5362 5362 5362 5362 5362 5362 5363 5364 5364 5365 5367 5368 5370 5371 5372 5374 5375 5378 5379 5382 5385 5387 5389
5355 5359 5357 5361 5374 5374 5369 5371 5371 5369 5369 5369 5366 5363 5360 5358 5357 5356 5355 5355 5355 5355 5355 5355 5354 5354 5355 5355 5356 5356 5359 5360 5362 5363 5364 5365 5367 5368 5370 5372 5374 5376 5378 5380
5350 5349 5350 5351 5363 5364 5362 5361 5362 5362 5362 5362 5359 5356 5354 5352 5351 5349 5348 5348 5349 5349 5348 5348 5347 5348 5348 5348 5349 5349 5352 5353 5355 5356 5357 5358 5359 5361 5363 5365 5367 5369 5370 5372
5352 5342 5343 5347 5355 5356 5360 5357 5357 5356 5354 5353 5351 5349 5347 5346 5344 5342 5341 5341 5341 5342 5342 5341 5341 5342 5342 5342 5343 5344 5345 5347 5348 5349 5350 5352 5353 5354 5356 5357 5359 5361 5363 5365
5343 5342 5345 5355 5356 5352 5356 5355 5351 5348 5347 5346 5343 5342 5340 5339 5337 5336 5335 5334 5334 5334 5335 5335 5335 5336 5336 5336 5337 5338 5339 5340 5341 5342 5344 5345 5346 5347 5348 5349 5351 5353 5356 5359